User: anonymous   Login
Location: Pinhead Observatory
(34.4473°N, 118.1985°W)
Time: 08:43:33
(UTC-07:00)
Language:

Kosmos-1188 - Orbit

View from above orbital plane
View from above orbital plane
View from above satellite
View from above satellite

Ground track
Ground track

The orbit data is extracted from the following two-line orbital elements,

1 11844U 80050A   13144.22762117  .99999999  16623-4  31779-2 0  6059
2 11844 062.1386 169.3793 0646593 031.0576 103.3285 15.07918463241901
Epoch (UTC): 24 May 2013 05:27:46
Eccentricity: 0.0646593
inclination: 62.1386°
perigee height: 95 km
apogee height: 990 km
right ascension of ascending node: 169.3793°
argument of perigee: 31.0576°
revolutions per day: 15.07918463
mean anomaly at epoch: 103.3285°
orbit number at epoch: 24190

The dashed part of the orbit path shows where the satellite is in the earth's shadow,  

DLR